Time,TemperatureF,DewpointF,PressureIn,WindDirection,WindDirectionDegrees,WindSpeedMPH,WindSpeedGustMPH,Humidity,HourlyPrecipIn,Conditions,Clouds,dailyrainin,SoftwareType,DateUTC
2013-01-14 00:01:00,59.9,59.0,30.31,NE,34,0.0,0.0,97,0.00,,SCT250,0.01,VWS V14.01,2013-01-14 05:01:00,
2013-01-14 00:02:00,59.9,59.0,30.31,NE,34,0.0,0.0,97,0.00,,SCT250,0.01,VWS V14.01,2013-01-14 05:02:00,
2013-01-14 00:03:00,59.9,59.0,30.31,NE,34,0.0,0.0,97,0.00,,SCT250,0.00,VWS V14.01,2013-01-14 05:03:00,
2013-01-14 00:05:00,59.9,59.0,30.31,NE,34,0.0,0.0,97,0.00,,SCT250,0.00,VWS V14.01,2013-01-14 05:05:00,
2013-01-14 00:10:00,59.9,59.0,30.31,NE,34,0.0,0.0,97,0.00,,SCT250,0.00,VWS V14.01,2013-01-14 05:10:00,
2013-01-14 00:15:00,59.9,59.0,30.31,NE,34,0.0,0.0,97,0.00,,SCT250,0.00,VWS V14.01,2013-01-14 05:15:00,
2013-01-14 00:20:00,59.6,58.8,30.31,NE,34,0.0,0.0,97,0.00,,SCT250,0.00,VWS V14.01,2013-01-14 05:20:00,
2013-01-14 00:25:00,59.3,58.5,30.31,NE,34,0.0,0.0,97,0.00,,SCT250,0.00,VWS V14.01,2013-01-14 05:25:00,
2013-01-14 00:30:00,58.9,58.0,30.31,NE,34,0.0,0.0,97,0.00,,SCT250,0.00,VWS V14.01,2013-01-14 05:30:00,
2013-01-14 00:35:00,58.6,57.8,30.31,NE,34,0.0,0.0,97,0.00,,SCT250,0.00,VWS V14.01,2013-01-14 05:35:00,
2013-01-14 00:40:00,58.4,57.6,30.31,NE,34,0.0,0.0,97,0.00,,SCT250,0.00,VWS V14.01,2013-01-14 05:40:00,
2013-01-14 00:45:00,58.7,58.1,30.31,NE,34,0.0,0.0,98,0.00,,SCT250,0.00,VWS V14.01,2013-01-14 05:45:00,
2013-01-14 00:50:00,59.3,58.7,30.32,NE,34,0.0,0.0,98,0.00,,SCT250,0.00,VWS V14.01,2013-01-14 05:50:00,
2013-01-14 00:55:00,59.8,59.2,30.32,NE,34,0.0,0.0,98,0.00,,SCT250,0.00,VWS V14.01,2013-01-14 05:55:00,
2013-01-14 01:01:00,60.2,59.6,30.32,NE,34,0.0,0.0,98,0.00,,SCT250,0.00,VWS V14.01,2013-01-14 06:01:00,
2013-01-14 01:06:00,60.5,59.9,30.32,NE,34,0.0,0.0,98,0.00,,SCT250,0.00,VWS V14.01,2013-01-14 06:06:00,
2013-01-14 01:11:00,60.5,59.9,30.32,NE,34,0.0,0.0,98,0.00,,SCT250,0.00,VWS V14.01,2013-01-14 06:11:00,
2013-01-14 01:16:00,60.2,59.3,30.32,NE,34,0.0,0.0,97,0.00,,SCT250,0.00,VWS V14.01,2013-01-14 06:16:00,
2013-01-14 01:21:00,60.1,59.5,30.31,NE,34,0.0,0.0,98,0.00,,SCT250,0.00,VWS V14.01,2013-01-14 06:21:00,
2013-01-14 01:26:00,59.9,59.3,30.31,NE,34,0.0,0.0,98,0.00,,SCT250,0.00,VWS V14.01,2013-01-14 06:26:00,
2013-01-14 01:32:00,60.1,59.5,30.32,NE,34,0.0,0.0,98,0.00,,SCT250,0.00,VWS V14.01,2013-01-14 06:32:00,
2013-01-14 01:37:00,60.1,59.5,30.32,NE,34,0.0,0.0,98,0.00,,SCT250,0.00,VWS V14.01,2013-01-14 06:37:00,
2013-01-14 01:42:00,60.1,59.5,30.32,NE,34,0.0,0.0,98,0.00,,SCT250,0.00,VWS V14.01,2013-01-14 06:42:00,
2013-01-14 01:47:00,59.9,59.3,30.32,NE,34,0.0,0.0,98,0.00,,SCT250,0.00,VWS V14.01,2013-01-14 06:47:00,
2013-01-14 01:52:00,59.9,59.3,30.32,NE,34,0.0,0.0,98,0.00,,SCT250,0.00,VWS V14.01,2013-01-14 06:52:00,
2013-01-14 01:57:00,60.1,59.5,30.32,NE,34,0.0,0.0,98,0.00,,SCT250,0.00,VWS V14.01,2013-01-14 06:57:00,
2013-01-14 02:02:00,60.2,59.6,30.32,NE,34,0.0,0.0,98,0.00,,,0.00,VWS V14.01,2013-01-14 07:02:00,
2013-01-14 02:07:00,60.4,59.8,30.32,NE,34,0.0,0.0,98,0.00,,,0.00,VWS V14.01,2013-01-14 07:07:00,
2013-01-14 02:12:00,60.4,59.8,30.32,NE,34,0.0,0.0,98,0.00,,,0.00,VWS V14.01,2013-01-14 07:12:00,
2013-01-14 02:18:00,60.5,59.9,30.32,NE,34,0.0,0.0,98,0.00,,,0.00,VWS V14.01,2013-01-14 07:18:00,
2013-01-14 02:23:00,60.5,59.9,30.32,NE,34,0.0,0.0,98,0.00,,,0.00,VWS V14.01,2013-01-14 07:23:00,
2013-01-14 02:28:00,60.7,60.1,30.32,NE,34,0.0,0.0,98,0.00,,,0.00,VWS V14.01,2013-01-14 07:28:00,
2013-01-14 02:33:00,61.0,60.4,30.32,NE,34,0.0,0.0,98,0.00,,,0.00,VWS V14.01,2013-01-14 07:33:00,
2013-01-14 02:38:00,61.3,60.7,30.32,East,87,0.0,0.0,98,0.00,,,0.00,VWS V14.01,2013-01-14 07:38:00,
2013-01-14 02:44:00,61.6,61.0,30.32,East,79,0.0,1.0,98,0.00,,,0.00,VWS V14.01,2013-01-14 07:44:00,
2013-01-14 02:49:00,62.0,61.4,30.31,East,79,0.0,2.0,98,0.00,,,0.00,VWS V14.01,2013-01-14 07:49:00,
2013-01-14 02:54:00,62.1,61.5,30.31,SE,134,0.0,1.0,98,0.00,,,0.00,VWS V14.01,2013-01-14 07:54:00,
2013-01-14 02:59:00,62.1,61.5,30.31,SE,132,0.0,0.0,98,0.00,,,0.00,VWS V14.01,2013-01-14 07:59:00,
2013-01-14 03:04:00,62.1,61.5,30.32,SE,132,0.0,0.0,98,0.00,,FEW250,0.00,VWS V14.01,2013-01-14 08:04:00,
2013-01-14 03:09:00,62.1,61.5,30.32,SE,132,0.0,1.0,98,0.00,,FEW250,0.00,VWS V14.01,2013-01-14 08:09:00,
2013-01-14 03:15:00,62.1,61.5,30.32,East,98,0.0,0.0,98,0.00,,FEW250,0.00,VWS V14.01,2013-01-14 08:15:00,
2013-01-14 03:20:00,62.3,61.7,30.31,NE,34,0.0,0.0,98,0.00,,FEW250,0.00,VWS V14.01,2013-01-14 08:20:00,
2013-01-14 03:25:00,62.3,61.7,30.31,NE,55,0.0,1.0,98,0.00,,FEW250,0.00,VWS V14.01,2013-01-14 08:25:00,
2013-01-14 03:30:00,62.3,61.7,30.31,ENE,69,0.0,1.0,98,0.00,,FEW250,0.00,VWS V14.01,2013-01-14 08:30:00,
2013-01-14 03:35:00,62.3,61.4,30.30,East,86,0.0,0.0,97,0.00,,FEW250,0.00,VWS V14.01,2013-01-14 08:35:00,
2013-01-14 03:40:00,62.3,61.7,30.30,East,86,0.0,1.0,98,0.00,,FEW250,0.00,VWS V14.01,2013-01-14 08:40:00,
2013-01-14 03:45:00,62.3,61.4,30.30,East,86,0.0,0.0,97,0.00,,FEW250,0.00,VWS V14.01,2013-01-14 08:45:00,
2013-01-14 03:51:00,62.3,61.4,30.30,East,94,0.0,0.0,97,0.00,,FEW250,0.00,VWS V14.01,2013-01-14 08:51:00,
2013-01-14 03:56:00,62.4,61.5,30.30,East,94,0.0,0.0,97,0.00,,FEW250,0.00,VWS V14.01,2013-01-14 08:56:00,
2013-01-14 04:01:00,62.3,61.4,30.30,East,94,0.0,0.0,97,0.00,,SCT250,0.00,VWS V14.01,2013-01-14 09:01:00,
2013-01-14 04:06:00,62.1,61.2,30.30,East,94,0.0,0.0,97,0.00,,SCT250,0.00,VWS V14.01,2013-01-14 09:06:00,
2013-01-14 04:11:00,62.1,61.2,30.30,East,94,0.0,0.0,97,0.00,,SCT250,0.00,VWS V14.01,2013-01-14 09:11:00,
2013-01-14 04:16:00,62.0,61.1,30.29,East,94,0.0,0.0,97,0.00,,SCT250,0.00,VWS V14.01,2013-01-14 09:16:00,
2013-01-14 04:22:00,62.0,61.1,30.29,East,94,0.0,0.0,97,0.00,,SCT250,0.00,VWS V14.01,2013-01-14 09:22:00,
2013-01-14 04:27:00,61.8,60.9,30.29,East,94,0.0,0.0,97,0.00,,SCT250,0.00,VWS V14.01,2013-01-14 09:27:00,
2013-01-14 04:32:00,61.8,60.9,30.29,East,94,0.0,0.0,97,0.00,,SCT250,0.00,VWS V14.01,2013-01-14 09:32:00,
2013-01-14 04:37:00,61.6,60.7,30.29,East,94,0.0,0.0,97,0.00,,SCT250,0.00,VWS V14.01,2013-01-14 09:37:00,
2013-01-14 04:42:00,61.5,60.6,30.29,East,94,0.0,0.0,97,0.00,,SCT250,0.00,VWS V14.01,2013-01-14 09:42:00,
2013-01-14 04:47:00,61.3,60.4,30.29,East,94,0.0,0.0,97,0.00,,SCT250,0.00,VWS V14.01,2013-01-14 09:47:00,
2013-01-14 04:52:00,61.3,60.4,30.29,East,94,0.0,0.0,97,0.00,,SCT250,0.00,VWS V14.01,2013-01-14 09:52:00,
2013-01-14 04:57:00,61.0,60.2,30.29,East,94,0.0,0.0,97,0.00,,SCT250,0.00,VWS V14.01,2013-01-14 09:57:00,
2013-01-14 05:03:00,61.0,60.2,30.29,East,94,0.0,0.0,97,0.00,,SCT250,0.00,VWS V14.01,2013-01-14 10:03:00,
2013-01-14 05:08:00,60.9,60.0,30.29,East,94,0.0,0.0,97,0.00,,SCT250,0.00,VWS V14.01,2013-01-14 10:08:00,
2013-01-14 05:13:00,60.7,59.8,30.29,East,94,0.0,0.0,97,0.00,,SCT250,0.00,VWS V14.01,2013-01-14 10:13:00,
2013-01-14 05:18:00,60.5,59.7,30.29,East,94,0.0,0.0,97,0.00,,SCT250,0.00,VWS V14.01,2013-01-14 10:18:00,
2013-01-14 05:23:00,60.5,59.7,30.29,East,94,0.0,0.0,97,0.01,,SCT250,0.01,VWS V14.01,2013-01-14 10:23:00,
2013-01-14 05:28:00,60.7,60.1,30.29,East,94,0.0,0.0,98,0.01,,SCT250,0.01,VWS V14.01,2013-01-14 10:28:00,
2013-01-14 05:33:00,61.0,60.4,30.29,East,94,0.0,0.0,98,0.01,,SCT250,0.01,VWS V14.01,2013-01-14 10:33:00,
2013-01-14 05:39:00,61.0,60.4,30.29,East,94,0.0,0.0,98,0.01,,SCT250,0.01,VWS V14.01,2013-01-14 10:39:00,
2013-01-14 05:44:00,61.0,60.4,30.29,East,94,0.0,0.0,98,0.01,,SCT250,0.01,VWS V14.01,2013-01-14 10:44:00,
2013-01-14 05:49:00,61.0,60.4,30.29,East,94,0.0,1.0,98,0.01,,SCT250,0.01,VWS V14.01,2013-01-14 10:49:00,
2013-01-14 05:54:00,61.2,60.6,30.29,East,94,0.0,0.0,98,0.01,,SCT250,0.01,VWS V14.01,2013-01-14 10:54:00,
2013-01-14 05:59:00,61.2,60.6,30.29,East,94,0.0,0.0,98,0.01,,SCT250,0.01,VWS V14.01,2013-01-14 10:59:00,
2013-01-14 06:04:00,61.3,60.7,30.29,East,94,0.0,0.0,98,0.01,,FEW003,0.01,VWS V14.01,2013-01-14 11:04:00,
2013-01-14 06:09:00,61.3,60.7,30.29,East,94,0.0,0.0,98,0.01,,FEW003,0.01,VWS V14.01,2013-01-14 11:09:00,
2013-01-14 06:14:00,61.5,60.9,30.29,East,94,0.0,0.0,98,0.01,,FEW003,0.01,VWS V14.01,2013-01-14 11:14:00,
2013-01-14 06:19:00,61.6,61.0,30.30,East,94,0.0,0.0,98,0.01,,FEW003,0.01,VWS V14.01,2013-01-14 11:19:00,
2013-01-14 06:25:00,61.8,61.2,30.30,East,94,0.0,0.0,98,0.00,,FEW003,0.01,VWS V14.01,2013-01-14 11:25:00,
2013-01-14 06:30:00,61.6,61.0,30.30,East,94,0.0,0.0,98,0.00,,FEW003,0.01,VWS V14.01,2013-01-14 11:30:00,
2013-01-14 06:35:00,61.6,61.0,30.30,East,94,0.0,0.0,98,0.00,,FEW003,0.01,VWS V14.01,2013-01-14 11:35:00,
2013-01-14 06:40:00,61.5,60.9,30.30,East,94,0.0,0.0,98,0.00,,FEW003,0.01,VWS V14.01,2013-01-14 11:40:00,
2013-01-14 06:45:00,61.5,60.9,30.30,East,94,0.0,0.0,98,0.00,,FEW003,0.01,VWS V14.01,2013-01-14 11:45:00,
2013-01-14 06:50:00,61.3,60.7,30.31,East,94,0.0,0.0,98,0.00,,FEW003,0.01,VWS V14.01,2013-01-14 11:50:00,
2013-01-14 06:55:00,61.3,60.7,30.31,East,94,0.0,0.0,98,0.00,,FEW003,0.01,VWS V14.01,2013-01-14 11:55:00,
2013-01-14 07:00:00,61.2,60.6,30.31,East,94,0.0,0.0,98,0.00,,FEW003,0.01,VWS V14.01,2013-01-14 12:00:00,
2013-01-14 07:05:00,61.0,60.4,30.31,East,94,0.0,0.0,98,0.00,,,0.01,VWS V14.01,2013-01-14 12:05:00,
2013-01-14 07:10:00,60.9,60.3,30.31,East,94,0.0,0.0,98,0.00,,,0.01,VWS V14.01,2013-01-14 12:10:00,
2013-01-14 07:15:00,60.9,60.3,30.31,East,94,0.0,0.0,98,0.00,,,0.01,VWS V14.01,2013-01-14 12:15:00,
2013-01-14 07:20:00,60.7,60.1,30.31,East,94,0.0,0.0,98,0.00,,,0.01,VWS V14.01,2013-01-14 12:20:00,
2013-01-14 07:25:00,60.9,60.3,30.31,East,94,0.0,0.0,98,0.00,,,0.01,VWS V14.01,2013-01-14 12:25:00,
2013-01-14 07:30:00,60.9,60.3,30.31,East,94,0.0,0.0,98,0.00,,,0.01,VWS V14.01,2013-01-14 12:30:00,
2013-01-14 07:35:00,60.9,60.3,30.31,East,94,0.0,0.0,98,0.00,,,0.01,VWS V14.01,2013-01-14 12:35:00,
2013-01-14 07:41:00,60.9,60.3,30.31,East,94,0.0,0.0,98,0.00,,,0.01,VWS V14.01,2013-01-14 12:41:00,
2013-01-14 07:46:00,60.9,60.3,30.31,East,94,0.0,0.0,98,0.00,,,0.01,VWS V14.01,2013-01-14 12:46:00,
2013-01-14 07:51:00,60.7,60.1,30.33,East,94,0.0,0.0,98,0.00,,,0.01,VWS V14.01,2013-01-14 12:51:00,
2013-01-14 07:56:00,60.5,59.9,30.33,East,94,0.0,0.0,98,0.00,,,0.01,VWS V14.01,2013-01-14 12:56:00,
2013-01-14 08:01:00,60.5,59.9,30.34,East,94,0.0,0.0,98,0.00,,SCT250,0.01,VWS V14.01,2013-01-14 13:01:00,
2013-01-14 08:06:00,60.7,60.1,30.34,East,94,0.0,0.0,98,0.00,,SCT250,0.01,VWS V14.01,2013-01-14 13:06:00,
2013-01-14 08:11:00,61.2,60.6,30.34,East,94,0.0,0.0,98,0.00,,SCT250,0.01,VWS V14.01,2013-01-14 13:11:00,
2013-01-14 08:16:00,61.5,60.9,30.34,East,94,0.0,0.0,98,0.00,,SCT250,0.01,VWS V14.01,2013-01-14 13:16:00,
2013-01-14 08:21:00,62.0,61.4,30.34,East,94,0.0,0.0,98,0.00,,SCT250,0.01,VWS V14.01,2013-01-14 13:21:00,
2013-01-14 08:26:00,62.4,61.8,30.34,East,94,0.0,0.0,98,0.00,,SCT250,0.01,VWS V14.01,2013-01-14 13:26:00,
2013-01-14 08:31:00,62.7,62.1,30.35,East,94,0.0,0.0,98,0.00,,SCT250,0.01,VWS V14.01,2013-01-14 13:31:00,
2013-01-14 08:37:00,63.1,62.5,30.35,East,94,0.0,0.0,98,0.00,,SCT250,0.01,VWS V14.01,2013-01-14 13:37:00,
2013-01-14 08:42:00,63.4,62.8,30.35,East,94,0.0,0.0,98,0.00,,SCT250,0.01,VWS V14.01,2013-01-14 13:42:00,
2013-01-14 08:47:00,63.7,63.1,30.35,East,94,0.0,0.0,98,0.00,,SCT250,0.01,VWS V14.01,2013-01-14 13:47:00,
2013-01-14 08:52:00,64.0,63.4,30.35,East,89,0.0,0.0,98,0.00,,SCT250,0.01,VWS V14.01,2013-01-14 13:52:00,
2013-01-14 08:57:00,64.2,63.6,30.35,NNW,337,0.0,1.0,98,0.00,,SCT250,0.01,VWS V14.01,2013-01-14 13:57:00,
2013-01-14 09:02:00,64.3,63.7,30.35,NNE,28,0.0,0.0,98,0.00,,SCT100,0.01,VWS V14.01,2013-01-14 14:02:00,
2013-01-14 09:07:00,64.7,64.1,30.35,NW,311,0.0,4.0,98,0.00,,SCT100,0.01,VWS V14.01,2013-01-14 14:07:00,
2013-01-14 09:12:00,64.8,64.2,30.35,NW,322,0.0,0.0,98,0.00,,SCT100,0.01,VWS V14.01,2013-01-14 14:12:00,
2013-01-14 09:17:00,64.8,63.9,30.35,East,98,0.0,1.0,97,0.00,,SCT100,0.01,VWS V14.01,2013-01-14 14:17:00,
2013-01-14 09:22:00,64.8,63.9,30.35,SSW,206,0.0,0.0,97,0.00,,SCT100,0.01,VWS V14.01,2013-01-14 14:22:00,
2013-01-14 09:27:00,65.0,63.8,30.35,South,174,0.0,0.0,96,0.00,,SCT100,0.01,VWS V14.01,2013-01-14 14:27:00,
2013-01-14 09:32:00,65.6,64.4,30.36,West,261,0.0,1.0,96,0.00,,SCT100,0.01,VWS V14.01,2013-01-14 14:32:00,
2013-01-14 09:37:00,66.1,64.6,30.36,SSW,213,0.0,0.0,95,0.00,,SCT100,0.01,VWS V14.01,2013-01-14 14:37:00,
2013-01-14 09:42:00,66.4,64.6,30.36,WSW,248,1.0,2.0,94,0.00,,SCT100,0.01,VWS V14.01,2013-01-14 14:42:00,
2013-01-14 09:47:00,66.6,64.2,30.37,SW,224,0.0,0.0,92,0.00,,SCT100,0.01,VWS V14.01,2013-01-14 14:47:00,
2013-01-14 09:52:00,66.4,63.7,30.37,West,264,0.0,2.0,91,0.00,,SCT100,0.01,VWS V14.01,2013-01-14 14:52:00,
2013-01-14 09:57:00,66.8,64.4,30.37,SW,224,0.0,0.0,92,0.00,,SCT100,0.01,VWS V14.01,2013-01-14 14:57:00,
2013-01-14 10:02:00,67.4,64.7,30.37,NW,313,0.0,0.0,91,0.00,,SCT200,0.01,VWS V14.01,2013-01-14 15:02:00,
2013-01-14 10:07:00,67.9,64.9,30.37,SSE,167,0.0,0.0,90,0.00,,SCT200,0.01,VWS V14.01,2013-01-14 15:07:00,
2013-01-14 10:12:00,67.9,64.2,30.37,South,176,0.0,2.0,88,0.00,,SCT200,0.01,VWS V14.01,2013-01-14 15:12:00,
2013-01-14 10:17:00,68.1,64.1,30.37,SE,136,0.0,5.0,87,0.00,,SCT200,0.01,VWS V14.01,2013-01-14 15:17:00,
2013-01-14 10:23:00,68.4,64.4,30.37,North,354,0.0,2.0,87,0.00,,SCT200,0.01,VWS V14.01,2013-01-14 15:23:00,
2013-01-14 10:28:00,68.8,64.4,30.37,NNW,330,1.0,4.0,86,0.00,,SCT200,0.01,VWS V14.01,2013-01-14 15:28:00,
2013-01-14 10:33:00,69.1,64.4,30.35,NNW,335,0.0,2.0,85,0.00,,SCT200,0.01,VWS V14.01,2013-01-14 15:33:00,
2013-01-14 10:38:00,69.6,64.6,30.35,WNW,295,1.0,1.0,84,0.00,,SCT200,0.01,VWS V14.01,2013-01-14 15:38:00,
2013-01-14 10:43:00,69.8,64.8,30.35,WNW,288,0.0,0.0,84,0.00,,SCT200,0.01,VWS V14.01,2013-01-14 15:43:00,
2013-01-14 10:48:00,70.1,65.1,30.35,WNW,292,0.0,1.0,84,0.00,,SCT200,0.01,VWS V14.01,2013-01-14 15:48:00,
2013-01-14 10:53:00,70.6,65.2,30.35,SW,216,0.0,0.0,83,0.00,,SCT200,0.01,VWS V14.01,2013-01-14 15:53:00,
2013-01-14 10:58:00,71.3,65.2,30.35,North,4,0.0,1.0,81,0.00,,SCT200,0.01,VWS V14.01,2013-01-14 15:58:00,
2013-01-14 11:03:00,71.8,64.9,30.34,North,352,2.0,2.0,79,0.00,,SCT250,0.01,VWS V14.01,2013-01-14 16:03:00,
2013-01-14 11:08:00,72.1,65.2,30.34,NNE,15,3.0,3.0,79,0.00,,SCT250,0.01,VWS V14.01,2013-01-14 16:08:00,
2013-01-14 11:13:00,72.5,65.3,30.34,SSW,198,2.0,3.0,78,0.00,,SCT250,0.01,VWS V14.01,2013-01-14 16:13:00,
2013-01-14 11:18:00,72.8,65.2,30.33,SW,214,1.0,3.0,77,0.00,,SCT250,0.01,VWS V14.01,2013-01-14 16:18:00,
2013-01-14 11:23:00,73.2,65.2,30.33,South,188,0.0,3.0,76,0.00,,SCT250,0.01,VWS V14.01,2013-01-14 16:23:00,
2013-01-14 11:28:00,73.5,65.5,30.33,NNW,340,2.0,3.0,76,0.00,,SCT250,0.01,VWS V14.01,2013-01-14 16:28:00,
2013-01-14 11:33:00,73.7,65.3,30.33,WNW,297,0.0,0.0,75,0.00,,SCT250,0.01,VWS V14.01,2013-01-14 16:33:00,
2013-01-14 11:38:00,74.0,65.6,30.33,WSW,253,1.0,1.0,75,0.00,,SCT250,0.01,VWS V14.01,2013-01-14 16:38:00,
2013-01-14 11:43:00,74.4,65.2,30.33,SSE,148,3.0,3.0,73,0.00,,SCT250,0.01,VWS V14.01,2013-01-14 16:43:00,
2013-01-14 11:48:00,74.6,65.0,30.32,SW,226,1.0,1.0,72,0.00,,SCT250,0.01,VWS V14.01,2013-01-14 16:48:00,
2013-01-14 11:53:00,75.1,65.1,30.32,WNW,302,0.0,2.0,71,0.00,,SCT250,0.01,VWS V14.01,2013-01-14 16:53:00,
2013-01-14 11:58:00,75.6,65.1,30.32,West,274,0.0,2.0,70,0.00,,SCT250,0.01,VWS V14.01,2013-01-14 16:58:00,
2013-01-14 12:03:00,75.4,64.5,30.32,SSW,201,1.0,3.0,69,0.00,,SCT250,0.01,VWS V14.01,2013-01-14 17:03:00,
2013-01-14 12:08:00,75.3,64.4,30.32,NW,309,3.0,5.0,69,0.00,,SCT250,0.01,VWS V14.01,2013-01-14 17:08:00,
2013-01-14 12:13:00,75.4,64.5,30.32,South,178,0.0,2.0,69,0.00,,SCT250,0.01,VWS V14.01,2013-01-14 17:13:00,
2013-01-14 12:18:00,75.8,64.5,30.32,SW,233,0.0,1.0,68,0.00,,SCT250,0.01,VWS V14.01,2013-01-14 17:18:00,
2013-01-14 12:24:00,76.1,63.9,30.32,West,262,3.0,4.0,66,0.00,,SCT250,0.01,VWS V14.01,2013-01-14 17:24:00,
2013-01-14 12:29:00,76.1,63.9,30.32,NW,326,1.0,6.0,66,0.00,,SCT250,0.01,VWS V14.01,2013-01-14 17:29:00,
2013-01-14 12:34:00,76.3,64.1,30.31,SSE,162,0.0,2.0,66,0.00,,SCT250,0.01,VWS V14.01,2013-01-14 17:34:00,
2013-01-14 12:39:00,76.8,64.2,30.31,South,171,0.0,1.0,65,0.00,,SCT250,0.01,VWS V14.01,2013-01-14 17:39:00,
2013-01-14 12:44:00,77.4,63.8,30.31,WNW,297,1.0,2.0,63,0.00,,SCT250,0.01,VWS V14.01,2013-01-14 17:44:00,
2013-01-14 12:49:00,77.4,63.4,30.30,SW,235,0.0,3.0,62,0.00,,SCT250,0.01,VWS V14.01,2013-01-14 17:49:00,
2013-01-14 12:54:00,77.4,63.4,30.30,WNW,302,1.0,4.0,62,0.00,,SCT250,0.01,VWS V14.01,2013-01-14 17:54:00,
2013-01-14 12:59:00,77.4,62.9,30.30,ENE,74,1.0,4.0,61,0.00,,SCT250,0.01,VWS V14.01,2013-01-14 17:59:00,
2013-01-14 13:04:00,77.9,63.4,30.29,North,0,1.0,2.0,61,0.00,,SCT250,0.01,VWS V14.01,2013-01-14 18:04:00,
2013-01-14 13:09:00,78.3,63.3,30.29,East,91,1.0,5.0,60,0.00,,SCT250,0.01,VWS V14.01,2013-01-14 18:09:00,
2013-01-14 13:14:00,78.1,63.1,30.29,ENE,72,0.0,5.0,60,0.00,,SCT250,0.01,VWS V14.01,2013-01-14 18:14:00,
2013-01-14 13:19:00,78.3,62.8,30.28,WNW,283,1.0,3.0,59,0.00,,SCT250,0.01,VWS V14.01,2013-01-14 18:19:00,
2013-01-14 13:24:00,78.3,62.3,30.28,WSW,248,4.0,11.0,58,0.00,,SCT250,0.01,VWS V14.01,2013-01-14 18:24:00,
2013-01-14 13:29:00,78.1,62.6,30.28,WSW,257,5.0,5.0,59,0.00,,SCT250,0.01,VWS V14.01,2013-01-14 18:29:00,
2013-01-14 13:34:00,78.1,62.6,30.27,WNW,294,3.0,3.0,59,0.00,,SCT250,0.01,VWS V14.01,2013-01-14 18:34:00,
2013-01-14 13:39:00,78.5,62.5,30.27,WSW,253,2.0,5.0,58,0.00,,SCT250,0.01,VWS V14.01,2013-01-14 18:39:00,
2013-01-14 13:44:00,78.3,61.8,30.27,WSW,254,4.0,4.0,57,0.00,,SCT250,0.01,VWS V14.01,2013-01-14 18:44:00,
2013-01-14 13:50:00,78.3,61.8,30.27,NE,35,2.0,6.0,57,0.00,,SCT250,0.01,VWS V14.01,2013-01-14 18:50:00,
2013-01-14 13:55:00,78.5,61.5,30.27,SSW,213,0.0,5.0,56,0.00,,SCT250,0.01,VWS V14.01,2013-01-14 18:55:00,
2013-01-14 14:00:00,78.3,60.8,30.27,NNW,339,4.0,5.0,55,0.00,,SCT250,0.01,VWS V14.01,2013-01-14 19:00:00,
2013-01-14 14:05:00,77.7,61.3,30.27,West,259,0.0,4.0,57,0.00,,SCT250,0.01,VWS V14.01,2013-01-14 19:05:00,
2013-01-14 14:10:00,78.3,61.8,30.27,East,86,2.0,9.0,57,0.00,,SCT250,0.01,VWS V14.01,2013-01-14 19:10:00,
2013-01-14 14:15:00,78.5,61.5,30.27,South,181,1.0,7.0,56,0.00,,SCT250,0.01,VWS V14.01,2013-01-14 19:15:00,
2013-01-14 14:20:00,78.1,61.1,30.27,West,281,3.0,4.0,56,0.00,,SCT250,0.01,VWS V14.01,2013-01-14 19:20:00,
2013-01-14 14:25:00,77.9,62.0,30.27,West,265,2.0,5.0,58,0.00,,SCT250,0.01,VWS V14.01,2013-01-14 19:25:00,
2013-01-14 14:30:00,78.1,61.6,30.27,East,86,10.0,10.0,57,0.00,,SCT250,0.01,VWS V14.01,2013-01-14 19:30:00,
2013-01-14 14:35:00,78.1,61.1,30.27,SSW,192,3.0,6.0,56,0.00,,SCT250,0.01,VWS V14.01,2013-01-14 19:35:00,
2013-01-14 14:40:00,78.1,61.6,30.27,South,169,3.0,5.0,57,0.00,,SCT250,0.01,VWS V14.01,2013-01-14 19:40:00,
2013-01-14 14:45:00,78.3,61.3,30.27,ESE,111,0.0,3.0,56,0.00,,SCT250,0.01,VWS V14.01,2013-01-14 19:45:00,
2013-01-14 14:50:00,78.5,61.0,30.28,SSW,205,0.0,5.0,55,0.00,,SCT250,0.01,VWS V14.01,2013-01-14 19:50:00,
2013-01-14 14:55:00,78.3,61.3,30.28,SSE,162,1.0,1.0,56,0.00,,SCT250,0.01,VWS V14.01,2013-01-14 19:55:00,
2013-01-14 15:00:00,78.1,61.1,30.28,SW,235,1.0,3.0,56,0.00,,SCT250,0.01,VWS V14.01,2013-01-14 20:00:00,
2013-01-14 15:05:00,78.3,60.8,30.28,SW,226,0.0,10.0,55,0.00,,SCT250,0.01,VWS V14.01,2013-01-14 20:05:00,
2013-01-14 15:10:00,78.1,60.6,30.28,South,184,3.0,6.0,55,0.00,,SCT250,0.01,VWS V14.01,2013-01-14 20:10:00,
2013-01-14 15:15:00,77.7,60.8,30.28,ESE,120,0.0,3.0,56,0.00,,SCT250,0.01,VWS V14.01,2013-01-14 20:15:00,
2013-01-14 15:20:00,77.7,60.8,30.28,NE,49,4.0,4.0,56,0.00,,SCT250,0.01,VWS V14.01,2013-01-14 20:20:00,
2013-01-14 15:25:00,77.4,61.0,30.28,NW,305,0.0,1.0,57,0.00,,SCT250,0.01,VWS V14.01,2013-01-14 20:25:00,
2013-01-14 15:30:00,77.4,61.0,30.28,West,276,0.0,5.0,57,0.00,,SCT250,0.01,VWS V14.01,2013-01-14 20:30:00,
2013-01-14 15:35:00,77.4,61.0,30.29,NW,326,3.0,3.0,57,0.00,,SCT250,0.01,VWS V14.01,2013-01-14 20:35:00,
2013-01-14 15:40:00,77.4,60.5,30.29,North,4,0.0,1.0,56,0.00,,SCT250,0.01,VWS V14.01,2013-01-14 20:40:00,
2013-01-14 15:45:00,76.8,60.4,30.29,SSW,197,0.0,1.0,57,0.00,,SCT250,0.01,VWS V14.01,2013-01-14 20:45:00,
2013-01-14 15:50:00,76.7,60.8,30.29,SSE,150,0.0,1.0,58,0.00,,SCT250,0.01,VWS V14.01,2013-01-14 20:50:00,
2013-01-14 15:55:00,76.8,61.4,30.29,North,0,1.0,1.0,59,0.00,,SCT250,0.01,VWS V14.01,2013-01-14 20:55:00,
2013-01-14 16:00:00,76.8,60.9,30.29,West,264,0.0,1.0,58,0.00,,SCT250,0.01,VWS V14.01,2013-01-14 21:00:00,
2013-01-14 16:05:00,76.8,60.9,30.30,West,264,1.0,1.0,58,0.00,,BKN250,0.01,VWS V14.01,2013-01-14 21:05:00,
2013-01-14 16:10:00,76.5,60.6,30.30,WSW,248,0.0,3.0,58,0.00,,BKN250,0.01,VWS V14.01,2013-01-14 21:10:00,
2013-01-14 16:15:00,76.0,60.7,30.30,NNW,330,0.0,3.0,59,0.00,,BKN250,0.01,VWS V14.01,2013-01-14 21:15:00,
2013-01-14 16:20:00,75.4,60.6,30.30,WSW,246,0.0,4.0,60,0.00,,BKN250,0.01,VWS V14.01,2013-01-14 21:20:00,
2013-01-14 16:25:00,75.1,60.8,30.30,West,269,0.0,3.0,61,0.00,,BKN250,0.01,VWS V14.01,2013-01-14 21:25:00,
2013-01-14 16:30:00,74.7,60.8,30.30,WNW,285,1.0,2.0,62,0.00,,BKN250,0.01,VWS V14.01,2013-01-14 21:30:00,
2013-01-14 16:35:00,74.6,60.7,30.30,WNW,302,0.0,1.0,62,0.00,,BKN250,0.01,VWS V14.01,2013-01-14 21:35:00,
2013-01-14 16:40:00,74.4,60.5,30.30,West,280,0.0,1.0,62,0.00,,BKN250,0.01,VWS V14.01,2013-01-14 21:40:00,
2013-01-14 16:45:00,74.2,60.8,30.30,South,178,0.0,2.0,63,0.00,,BKN250,0.01,VWS V14.01,2013-01-14 21:45:00,
2013-01-14 16:50:00,74.0,60.6,30.30,SW,219,0.0,0.0,63,0.00,,BKN250,0.01,VWS V14.01,2013-01-14 21:50:00,
2013-01-14 16:55:00,73.7,60.8,30.30,WNW,292,0.0,0.0,64,0.00,,BKN250,0.01,VWS V14.01,2013-01-14 21:55:00,
2013-01-14 17:00:00,73.5,60.6,30.30,SSE,151,0.0,1.0,64,0.00,,BKN250,0.01,VWS V14.01,2013-01-14 22:00:00,
2013-01-14 17:05:00,73.3,60.8,30.31,SSE,158,0.0,0.0,65,0.00,,BKN250,0.01,VWS V14.01,2013-01-14 22:05:00,
2013-01-14 17:10:00,73.2,60.7,30.31,SSE,158,0.0,0.0,65,0.00,,BKN250,0.01,VWS V14.01,2013-01-14 22:10:00,
2013-01-14 17:15:00,72.8,60.4,30.31,ENE,66,0.0,5.0,65,0.00,,BKN250,0.01,VWS V14.01,2013-01-14 22:15:00,
2013-01-14 17:20:00,72.7,60.3,30.31,NNW,342,0.0,1.0,65,0.00,,BKN250,0.01,VWS V14.01,2013-01-14 22:20:00,
2013-01-14 17:25:00,72.5,60.5,30.31,ENE,77,3.0,3.0,66,0.00,,BKN250,0.01,VWS V14.01,2013-01-14 22:25:00,
2013-01-14 17:30:00,72.3,60.7,30.31,ESE,108,0.0,2.0,67,0.00,,BKN250,0.01,VWS V14.01,2013-01-14 22:30:00,
2013-01-14 17:35:00,72.0,61.3,30.32,ESE,104,0.0,0.0,69,0.00,,BKN250,0.01,VWS V14.01,2013-01-14 22:35:00,
2013-01-14 17:40:00,71.6,60.9,30.32,ESE,104,0.0,0.0,69,0.00,,BKN250,0.01,VWS V14.01,2013-01-14 22:40:00,
2013-01-14 17:45:00,71.3,60.6,30.32,ESE,104,0.0,0.0,69,0.00,,BKN250,0.01,VWS V14.01,2013-01-14 22:45:00,
2013-01-14 17:50:00,71.1,61.2,30.32,East,87,0.0,0.0,71,0.00,,BKN250,0.01,VWS V14.01,2013-01-14 22:50:00,
2013-01-14 17:55:00,70.8,60.9,30.32,East,87,0.0,0.0,71,0.00,,BKN250,0.01,VWS V14.01,2013-01-14 22:55:00,
2013-01-14 18:00:00,70.4,61.0,30.32,ESE,110,0.0,0.0,72,0.00,,BKN250,0.01,VWS V14.01,2013-01-14 23:00:00,
2013-01-14 18:05:00,70.3,61.2,30.32,North,358,0.0,0.0,73,0.00,,BKN250,0.01,VWS V14.01,2013-01-14 23:05:00,
2013-01-14 18:10:00,70.1,61.4,30.32,ENE,61,0.0,0.0,74,0.00,,BKN250,0.01,VWS V14.01,2013-01-14 23:10:00,
2013-01-14 18:15:00,69.8,61.2,30.32,ENE,60,0.0,0.0,74,0.00,,BKN250,0.01,VWS V14.01,2013-01-14 23:15:00,
2013-01-14 18:20:00,69.4,61.5,30.32,SE,129,0.0,1.0,76,0.00,,BKN250,0.01,VWS V14.01,2013-01-14 23:20:00,
2013-01-14 18:25:00,68.9,61.4,30.32,East,100,0.0,1.0,77,0.00,,BKN250,0.01,VWS V14.01,2013-01-14 23:25:00,
2013-01-14 18:30:00,68.6,61.5,30.32,East,99,0.0,0.0,78,0.00,,BKN250,0.01,VWS V14.01,2013-01-14 23:30:00,
2013-01-14 18:35:00,68.3,61.9,30.32,ESE,117,0.0,2.0,80,0.00,,BKN250,0.01,VWS V14.01,2013-01-14 23:35:00,
2013-01-14 18:40:00,67.9,61.5,30.32,ESE,117,0.0,0.0,80,0.00,,BKN250,0.01,VWS V14.01,2013-01-14 23:40:00,
2013-01-14 18:45:00,67.6,61.6,30.32,ESE,105,0.0,0.0,81,0.00,,BKN250,0.01,VWS V14.01,2013-01-14 23:45:00,
2013-01-14 18:50:00,67.4,61.4,30.32,ESE,105,0.0,0.0,81,0.00,,BKN250,0.01,VWS V14.01,2013-01-14 23:50:00,
2013-01-14 18:55:00,67.3,61.6,30.32,East,94,1.0,1.0,82,0.00,,BKN250,0.01,VWS V14.01,2013-01-14 23:55:00,
2013-01-14 19:00:00,66.9,61.6,30.32,East,101,0.0,4.0,83,0.00,,BKN250,0.01,VWS V14.01,2013-01-15 00:00:00,
2013-01-14 19:05:00,66.8,61.5,30.33,East,82,0.0,2.0,83,0.00,,SCT250,0.01,VWS V14.01,2013-01-15 00:05:00,
2013-01-14 19:10:00,66.6,61.6,30.33,ESE,104,1.0,1.0,84,0.00,,SCT250,0.01,VWS V14.01,2013-01-15 00:10:00,
2013-01-14 19:15:00,66.3,61.3,30.33,ESE,103,0.0,0.0,84,0.00,,SCT250,0.01,VWS V14.01,2013-01-15 00:15:00,
2013-01-14 19:20:00,66.1,61.1,30.33,ESE,103,0.0,1.0,84,0.00,,SCT250,0.01,VWS V14.01,2013-01-15 00:20:00,
2013-01-14 19:25:00,66.0,61.4,30.33,ESE,103,0.0,0.0,85,0.00,,SCT250,0.01,VWS V14.01,2013-01-15 00:25:00,
2013-01-14 19:30:00,65.8,61.2,30.33,ESE,103,0.0,0.0,85,0.00,,SCT250,0.01,VWS V14.01,2013-01-15 00:30:00,
2013-01-14 19:35:00,65.5,61.2,30.33,ESE,108,0.0,2.0,86,0.00,,SCT250,0.01,VWS V14.01,2013-01-15 00:35:00,
2013-01-14 19:40:00,65.3,61.0,30.33,ESE,108,0.0,0.0,86,0.00,,SCT250,0.01,VWS V14.01,2013-01-15 00:40:00,
2013-01-14 19:45:00,65.2,61.2,30.33,ESE,108,0.0,0.0,87,0.00,,SCT250,0.01,VWS V14.01,2013-01-15 00:45:00,
2013-01-14 19:50:00,65.0,61.0,30.33,ESE,108,0.0,0.0,87,0.00,,SCT250,0.01,VWS V14.01,2013-01-15 00:50:00,
2013-01-14 19:55:00,64.8,60.8,30.33,ESE,108,0.0,0.0,87,0.00,,SCT250,0.01,VWS V14.01,2013-01-15 00:55:00,
2013-01-14 20:00:00,64.7,60.8,30.33,ESE,108,0.0,1.0,87,0.00,,SCT250,0.01,VWS V14.01,2013-01-15 01:00:00,
2013-01-14 20:05:00,64.5,60.5,30.33,ESE,108,0.0,0.0,87,0.00,,SCT250,0.01,VWS V14.01,2013-01-15 01:05:00,
2013-01-14 20:10:00,64.5,60.9,30.33,ESE,108,0.0,0.0,88,0.00,,SCT250,0.01,VWS V14.01,2013-01-15 01:10:00,
2013-01-14 20:15:00,64.3,60.7,30.33,ESE,108,0.0,0.0,88,0.00,,SCT250,0.01,VWS V14.01,2013-01-15 01:15:00,
2013-01-14 20:20:00,64.2,60.6,30.33,ESE,108,0.0,0.0,88,0.00,,SCT250,0.01,VWS V14.01,2013-01-15 01:20:00,
2013-01-14 20:25:00,64.0,60.4,30.33,ESE,108,0.0,0.0,88,0.00,,SCT250,0.01,VWS V14.01,2013-01-15 01:25:00,
2013-01-14 20:30:00,63.9,60.3,30.33,ESE,108,0.0,0.0,88,0.00,,SCT250,0.01,VWS V14.01,2013-01-15 01:30:00,
2013-01-14 20:35:00,63.7,60.4,30.33,ESE,108,0.0,0.0,89,0.00,,SCT250,0.01,VWS V14.01,2013-01-15 01:35:00,
2013-01-14 20:40:00,63.5,60.2,30.33,ESE,108,0.0,0.0,89,0.00,,SCT250,0.01,VWS V14.01,2013-01-15 01:40:00,
2013-01-14 20:45:00,63.5,60.5,30.33,ESE,108,0.0,0.0,90,0.00,,SCT250,0.01,VWS V14.01,2013-01-15 01:45:00,
2013-01-14 20:50:00,63.5,60.5,30.33,ESE,108,0.0,0.0,90,0.00,,SCT250,0.01,VWS V14.01,2013-01-15 01:50:00,
2013-01-14 20:55:00,63.4,60.4,30.33,ESE,108,0.0,0.0,90,0.00,,SCT250,0.01,VWS V14.01,2013-01-15 01:55:00,
2013-01-14 21:00:00,63.4,60.4,30.33,ESE,108,0.0,0.0,90,0.00,,SCT250,0.01,VWS V14.01,2013-01-15 02:00:00,
2013-01-14 21:05:00,63.2,60.2,30.33,ESE,108,0.0,0.0,90,0.00,,SCT250,0.01,VWS V14.01,2013-01-15 02:05:00,
2013-01-14 21:10:00,63.1,60.1,30.33,ESE,108,0.0,0.0,90,0.00,,SCT250,0.01,VWS V14.01,2013-01-15 02:10:00,
2013-01-14 21:15:00,63.1,60.1,30.33,ESE,108,0.0,0.0,90,0.00,,SCT250,0.01,VWS V14.01,2013-01-15 02:15:00,
2013-01-14 21:20:00,63.2,60.2,30.33,ESE,108,0.0,1.0,90,0.00,,SCT250,0.01,VWS V14.01,2013-01-15 02:20:00,
2013-01-14 21:25:00,63.2,60.2,30.33,ESE,108,0.0,0.0,90,0.00,,SCT250,0.01,VWS V14.01,2013-01-15 02:25:00,
2013-01-14 21:30:00,63.4,60.4,30.33,ESE,108,0.0,0.0,90,0.00,,SCT250,0.01,VWS V14.01,2013-01-15 02:30:00,
2013-01-14 21:35:00,63.4,60.4,30.32,ESE,108,0.0,0.0,90,0.00,,SCT250,0.01,VWS V14.01,2013-01-15 02:35:00,
2013-01-14 21:40:00,63.4,60.1,30.32,ESE,108,0.0,1.0,89,0.00,,SCT250,0.01,VWS V14.01,2013-01-15 02:40:00,
2013-01-14 21:45:00,63.5,60.2,30.32,ESE,108,0.0,0.0,89,0.00,,SCT250,0.01,VWS V14.01,2013-01-15 02:45:00,
2013-01-14 21:50:00,63.5,60.2,30.32,ESE,108,0.0,0.0,89,0.00,,SCT250,0.01,VWS V14.01,2013-01-15 02:50:00,
2013-01-14 21:55:00,63.4,60.1,30.32,ESE,108,0.0,0.0,89,0.00,,SCT250,0.01,VWS V14.01,2013-01-15 02:55:00,
2013-01-14 22:00:00,63.4,60.1,30.32,ESE,108,0.0,0.0,89,0.00,,SCT250,0.01,VWS V14.01,2013-01-15 03:00:00,
2013-01-14 22:05:00,63.4,60.1,30.32,ESE,108,0.0,0.0,89,0.00,,SCT250,0.01,VWS V14.01,2013-01-15 03:05:00,
2013-01-14 22:10:00,63.2,59.9,30.32,ESE,108,0.0,1.0,89,0.00,,SCT250,0.01,VWS V14.01,2013-01-15 03:10:00,
2013-01-14 22:15:00,63.2,59.9,30.32,ESE,108,0.0,0.0,89,0.00,,SCT250,0.01,VWS V14.01,2013-01-15 03:15:00,
2013-01-14 22:20:00,63.2,59.9,30.32,ESE,108,0.0,1.0,89,0.00,,SCT250,0.01,VWS V14.01,2013-01-15 03:20:00,
2013-01-14 22:25:00,63.2,59.9,30.32,ESE,113,0.0,0.0,89,0.00,,SCT250,0.01,VWS V14.01,2013-01-15 03:25:00,
2013-01-14 22:30:00,63.2,59.9,30.32,ESE,113,0.0,0.0,89,0.00,,SCT250,0.01,VWS V14.01,2013-01-15 03:30:00,
2013-01-14 22:35:00,63.4,60.1,30.32,NNW,337,3.0,5.0,89,0.00,,SCT250,0.01,VWS V14.01,2013-01-15 03:35:00,
2013-01-14 22:40:00,63.5,60.2,30.32,East,101,0.0,1.0,89,0.00,,SCT250,0.01,VWS V14.01,2013-01-15 03:40:00,
2013-01-14 22:45:00,63.5,60.2,30.32,East,101,0.0,0.0,89,0.00,,SCT250,0.01,VWS V14.01,2013-01-15 03:45:00,
2013-01-14 22:50:00,63.5,60.2,30.32,East,101,0.0,0.0,89,0.00,,SCT250,0.01,VWS V14.01,2013-01-15 03:50:00,
2013-01-14 22:55:00,63.5,60.2,30.32,East,101,0.0,0.0,89,0.00,,SCT250,0.01,VWS V14.01,2013-01-15 03:55:00,
2013-01-14 23:00:00,63.4,60.1,30.32,East,101,0.0,0.0,89,0.00,,SCT250,0.01,VWS V14.01,2013-01-15 04:00:00,
2013-01-14 23:05:00,63.4,60.1,30.32,East,101,0.0,0.0,89,0.00,,SCT250,0.01,VWS V14.01,2013-01-15 04:05:00,
2013-01-14 23:10:00,63.4,60.4,30.32,East,101,0.0,0.0,90,0.00,,SCT250,0.01,VWS V14.01,2013-01-15 04:10:00,
2013-01-14 23:15:00,63.2,60.2,30.32,East,101,0.0,0.0,90,0.00,,SCT250,0.01,VWS V14.01,2013-01-15 04:15:00,
2013-01-14 23:20:00,63.1,60.1,30.32,East,101,0.0,0.0,90,0.00,,SCT250,0.01,VWS V14.01,2013-01-15 04:20:00,
2013-01-14 23:25:00,62.9,59.9,30.32,East,101,0.0,0.0,90,0.00,,SCT250,0.01,VWS V14.01,2013-01-15 04:25:00,
2013-01-14 23:30:00,62.9,60.2,30.32,East,101,0.0,0.0,91,0.00,,SCT250,0.01,VWS V14.01,2013-01-15 04:30:00,
2013-01-14 23:35:00,62.9,60.2,30.32,East,101,0.0,0.0,91,0.00,,SCT250,0.01,VWS V14.01,2013-01-15 04:35:00,
2013-01-14 23:40:00,62.7,60.0,30.32,East,101,0.0,0.0,91,0.00,,SCT250,0.01,VWS V14.01,2013-01-15 04:40:00,
2013-01-14 23:45:00,62.7,60.0,30.32,East,101,0.0,0.0,91,0.00,,SCT250,0.01,VWS V14.01,2013-01-15 04:45:00,
2013-01-14 23:50:00,62.6,59.9,30.32,East,101,0.0,0.0,91,0.00,,SCT250,0.01,VWS V14.01,2013-01-15 04:50:00,
2013-01-14 23:55:00,62.6,60.2,30.32,East,101,0.0,0.0,92,0.00,,SCT250,0.01,VWS V14.01,2013-01-15 04:55:00,